Skip Page Navigation
NASA JPL Caltech
NASA Logo - Jet Propulsion Laboratory + View the NASA Portal
+ Center for Near-Earth Object Studies
JPL Home Earth Solar System Stars & Galaxies Technology
JPL Solar System Dynamics
BODIES ORBITS EPHEMERIDES TOOLS PHYSICAL DATA DISCOVERY FAQ SITE MAP
JPL Small-Body Database Browser
Search: [ help ]  
139P/Vaisala-Oterma
Classification: Jupiter-family Comet          SPK-ID: 1000238
Ephemeris | Orbit Diagram | Orbital Elements | Mission Design | Physical Parameters | Close-Approach Data ]

[ show orbit diagram ]
Orbital Elements at Epoch 2455516.5 (2010-Nov-16.0) TDB
Reference: JPL 41 (heliocentric ecliptic J2000)
 Element Value Uncertainty (1-sigma)   Units 
e .2475258895835873 1.8595e-07  
a 4.522310018781327 7.1455e-08 au
q 3.40292120840971 8.347e-07 au
i 2.328730212472332 1.9725e-05 deg
node 242.3775854441777 0.00034897 deg
peri 165.7253966892989 0.00035396 deg
M 96.29128772402149 5.0653e-05 deg
tp 2454576.942383031845
(2008-Apr-20.44238303)
0.00049682 TDB
period 3512.682716197136
9.62
8.3253e-05
2.279e-07
d
yr
n .1024857720112392 2.429e-09 deg/d
Q 5.641698829152944 8.9142e-08 au
  Orbit Determination Parameters
   # obs. used (total)      546  
   data-arc span      28975 days (79.33 yr)  
   first obs. used      1939-10-07  
   last obs. used      2019-02-04  
   planetary ephem.      DE441  
   SB-pert. ephem.      SB441-N16  
   condition code      0  
   norm. resid. RMS      .71929  
   source      ORB  
   producer      Otto Matic  
   solution date      2021-Apr-15 23:27:39  

Additional Information
 Earth MOID = 2.41255 au 
 Jupiter MOID = .0503809 au 
 T_jup = 2.956 
[ show covariance matrix ]

Ephemeris | Orbit Diagram | Orbital Elements | Mission Design | Physical Parameters | Close-Approach Data ]

Physical Parameter Table
Parameter Symbol Value Units Sigma Reference Notes
comet total magnitude M1 7.2   0.7 41 from 280 observations, assumed slope, autocmod 2.9c
comet total magnitude slope K1 18.   n/a 41 autocmod 2.9c
comet nuclear magnitude M2 14.4   0.7 41 from 189 observations, autocmod 2.9c
comet nuclear magnitude slope K2 5.   n/a 41 autocmod 2.9c
comet nuclear phase coefficient PC 0.03   n/a 41 autocmod 2.9c

[ show close-approach data ]
Alternate Designations
 Perihelion 
Year
(est.)
 New-Style 
Desig
Roman
 Numeral 
Year/
 Letter 
 1998.7   139P/1998 WG22       
 1941.0   139P/1939 TN       
Ephemeris | Orbit Diagram | Orbital Elements | Mission Design | Physical Parameters | Close-Approach Data ]
ABOUT SSD CREDITS/AWARDS PRIVACY/COPYRIGHT GLOSSARY LINKS
FirstGov 2021-Apr-19 17:02 UT
(server date/time)  
NASA Home Page
Site Manager:   Ryan S. Park
Webmaster  Alan B. Chamberlin